Regional Weather Roundup
Issued by NWS

Home | Current Version | Previous Version | Graphics & Text | Print | Product List | Glossary On
Versions: 1 2 3 4 5 6 7 8 9 10 11 12 13 14 15 16 17 18 19 20 21 22 23 24 25 26 27 28 29 30 31 32 33 34 35 36 37 38 39 40 41 42 43 44 45 46 47 48 49 50
000
ASUS43 KLMK 260210
RWRKY
KENTUCKY REGIONAL WEATHER ROUNDUP
NATIONAL WEATHER SERVICE LOUISVILLE KY
1000 PM EDT FRI JUL 25 2014

NOTE "FAIR" INDICATES FEW OR NO CLOUDS BELOW 12,000 FEET
WITH NO SIGNIFICANT WEATHER AND/OR OBSTRUCTIONS TO VISIBILITY.

KYZ001>023-026-027-061>063-070>075-260300-
WESTERN AND SOUTH CENTRAL KENTUCKY

CITY           SKY/WX    TMP DP  RH WIND       PRES   REMARKS
PADUCAH        MOCLDY    71  64  78 CALM      29.94R
HENDERSON      PTCLDY    66  61  82 CALM      29.97R
OWENSBORO      PTCLDY    73  60  63 CALM      29.99R
HOPKINSVILLE   MOCLDY    74  63  69 SW5       29.97R
BOWLING GREEN  PTCLDY    76  58  53 S5        29.99R
GLASGOW        MOCLDY    72  59  62 CALM      30.00R
$$

KYZ024-025-028>034-038-045-046-053-260300-
NORTH CENTRAL KENTUCKY

CITY           SKY/WX    TMP DP  RH WIND       PRES   REMARKS
LOUISVILLE/SDF MOCLDY    76  58  53 SE9       29.98R
LOUISVILLE/LOU PTCLDY    76  58  53 SE5       29.98R
FORT KNOX      MOCLDY    73  61  66 E5        29.98R
$$

KYZ035>037-039>044-047>052-055>060-089>105-260300-
NORTHEAST KENTUCKY

CITY           SKY/WX    TMP DP  RH WIND       PRES   REMARKS
LEXINGTON      MOCLDY    72  58  61 SE6       30.01S
COVINGTON      MOCLDY    70  56  61 CALM      29.99R
FRANKFORT      MOCLDY    71  60  68 SE5       29.99R
$$

KYZ054-064>069-076>088-106>120-260300-
SOUTHEAST KENTUCKY

CITY           SKY/WX    TMP DP  RH WIND       PRES   REMARKS
JACKSON        MOCLDY    71  56  58 CALM      30.05R
LONDON         MOCLDY    69  63  81 N3        30.04R
SOMERSET       CLOUDY    68  59  73 CALM      30.04R
MIDDLESBORO    CLEAR     67  64  89 CALM      30.05R
MONTICELLO     CLOUDY    66  64  93 CALM      30.03R
$$




USA.gov is the U.S. government's official web portal to all federal, state and local government web resources and services.